GFSNE_925_spd_024.txt.gz
Wind_Speed
12 14 13 9 7 3 8 7 3 2 3 8 6 12 20 20 25 26 27 28 23 23 22 20 21 22 24 25 24 26 27 26 25 25 25 25 28 27
11 11 11 8 8 6 6 5 6 3 3 5 15 23 24 26 24 21 24 23 22 19 21 22 22 21 22 21 23 24 26 25 25 26 24 26 26 26
9 6 8 8 9 7 8 10 7 7 6 12 22 23 25 26 25 24 23 22 20 23 21 21 24 23 20 22 22 26 26 26 26 25 25 25 26 27
5 5 6 5 8 10 9 8 9 10 9 13 20 25 26 24 25 25 24 21 24 22 21 23 24 21 20 20 23 25 26 25 24 22 23 26 26 26
4 5 6 7 10 9 9 10 10 10 10 13 18 25 25 25 27 26 23 26 26 23 26 25 22 19 20 22 22 25 23 21 21 23 24 28 25 25
6 5 6 6 8 9 10 8 9 11 14 19 20 20 19 25 23 21 19 23 27 30 26 22 22 22 23 23 21 24 17 16 17 19 24 26 25 25
6 7 8 10 10 9 8 8 7 10 15 19 16 17 17 17 16 20 22 24 28 24 20 19 27 23 23 23 20 22 20 16 13 14 19 21 23 25
9 10 11 12 12 10 9 8 9 12 16 15 15 15 14 20 22 22 23 18 11 17 13 31 26 23 22 21 19 21 23 19 13 18 19 23 24 24
11 10 10 11 12 11 10 11 12 15 15 15 18 16 21 23 22 22 20 19 21 31 20 20 25 24 20 21 23 18 20 19 19 20 20 24 25 21
11 11 12 12 12 12 12 14 15 18 16 13 14 20 20 22 22 22 23 23 23 26 17 10 24 21 24 24 16 11 15 18 18 18 21 24 24 19
11 12 13 13 12 12 12 14 19 20 12 11 12 16 18 17 15 18 17 17 18 22 22 13 16 19 21 13 20 11 16 15 15 16 19 23 21 17
13 12 13 14 13 11 12 15 18 16 13 15 16 17 17 18 16 14 15 16 16 14 12 10 17 12 7 8 22 22 23 18 13 14 15 19 7 11
16 14 13 14 13 12 11 14 14 14 16 17 20 21 20 20 17 17 16 17 18 19 27 21 14 9 6 9 14 16 22 26 14 12 14 17 11 8
20 17 13 13 14 13 13 14 14 16 20 22 22 21 18 19 19 19 18 16 16 21 23 25 15 10 7 11 8 16 21 21 26 13 14 14 7 10
23 19 16 14 13 14 15 14 16 18 20 22 20 19 16 16 18 19 17 15 16 15 15 20 11 12 13 11 12 17 15 20 23 23 9 7 3 12
26 22 20 18 17 16 16 16 16 16 17 18 17 14 15 15 18 17 18 19 19 20 16 19 18 7 11 11 13 15 14 7 17 19 9 14 2 10
29 24 22 22 22 21 19 17 17 17 16 17 15 13 13 13 15 16 16 17 17 18 21 21 22 10 8 9 11 14 15 15 13 12 21 15 13 9
24 26 27 27 27 25 22 20 17 18 15 14 13 13 12 11 13 15 15 16 16 17 16 19 22 21 12 4 5 11 11 10 7 6 10 10 15 16
24 21 25 28 29 28 25 22 20 19 15 14 12 11 9 9 10 12 14 15 16 15 15 15 17 15 5 2 5 9 5 5 7 5 6 9 11 11
25 29 30 31 30 28 26 23 22 20 17 16 12 9 8 9 10 10 11 14 15 13 14 16 16 14 6 5 7 9 8 3 4 7 2 7 8 7
29 30 32 32 31 28 26 24 22 21 21 20 16 13 10 10 10 10 9 11 12 11 12 16 17 12 12 8 5 3 5 5 7 3 5 2 3 3
29 29 30 32 31 29 27 25 24 23 23 23 21 15 12 10 10 9 7 9 10 10 14 14 15 13 12 5 2 1 2 5 8 9 9 5 2 3
25 29 30 32 31 29 27 26 25 23 24 26 23 18 14 13 10 8 7 6 7 8 12 14 13 12 12 9 8 4 4 4 4 6 10 11 10 9

GFSNE_925_spd_030.txt.gz
Wind_Speed
10 11 13 13 15 14 12 11 8 2 2 8 9 9 13 22 24 24 24 24 23 21 21 20 21 23 23 24 25 26 27 28 27 27 27 28 29 30
11 12 12 12 11 11 11 12 13 14 4 9 10 14 17 21 21 22 22 22 23 22 20 22 23 23 23 24 25 27 27 27 27 26 28 30 30 31
10 12 12 10 11 12 13 13 13 14 11 12 14 17 21 22 24 21 21 22 21 20 20 23 24 25 26 27 28 26 26 25 25 27 27 29 30 31
13 11 12 12 13 13 14 15 16 15 14 16 19 19 22 24 23 22 22 21 24 24 23 25 24 22 20 21 23 25 26 26 26 26 28 28 29 29
17 15 14 14 15 16 16 16 16 15 15 16 18 18 22 23 24 23 22 25 23 20 21 18 17 21 22 23 24 26 27 27 27 26 26 28 26 26
19 18 16 18 18 17 16 15 16 16 14 15 17 20 19 22 20 16 22 21 25 24 16 18 25 25 24 22 21 21 22 24 25 24 25 27 23 19
20 20 19 19 18 16 16 15 15 15 14 13 17 16 16 16 13 18 19 25 24 13 18 27 29 26 24 23 22 21 19 21 23 23 24 24 20 21
24 23 21 19 18 16 15 15 14 15 14 13 15 14 18 16 18 20 19 17 12 13 25 31 22 28 27 25 23 22 22 22 24 24 22 25 25 23
27 24 22 21 18 16 15 15 15 15 14 15 17 20 17 15 17 19 16 18 20 23 22 26 26 29 29 32 25 14 12 15 14 16 20 25 23 24
26 24 23 20 19 17 16 17 19 18 16 16 19 16 14 14 15 18 20 23 22 21 17 18 23 28 31 33 22 10 12 16 19 20 22 25 25 25
25 24 23 22 20 18 17 19 20 20 16 16 14 13 13 14 15 17 20 15 18 19 22 13 14 28 25 21 15 11 16 18 21 22 22 23 22 22
25 24 24 24 21 19 19 19 21 21 16 14 13 14 14 15 15 14 16 14 16 12 5 13 21 13 10 12 17 22 17 18 21 21 23 23 21 20
28 28 26 26 24 23 21 21 22 17 15 15 15 16 16 16 16 15 15 16 15 16 24 18 18 19 10 16 19 23 16 23 21 24 24 23 18 19
29 30 27 25 24 26 24 24 20 18 17 18 19 20 19 17 14 14 16 17 17 19 22 17 15 18 21 21 14 19 26 25 18 22 29 29 21 17
26 27 29 27 26 26 28 26 21 21 20 21 22 21 18 16 15 15 15 16 17 16 14 12 14 18 19 19 15 15 19 18 18 25 29 29 18 11
27 26 26 28 28 28 29 27 27 25 24 23 23 20 18 16 15 14 14 15 17 18 15 12 14 17 21 17 14 16 19 9 21 22 25 24 15 2
28 26 25 25 23 24 28 30 30 29 26 25 22 20 18 16 15 13 12 12 12 16 20 20 18 19 16 12 8 12 15 15 16 18 20 20 23 17
25 22 23 22 23 23 23 25 29 31 28 26 23 21 19 16 14 12 10 10 12 14 16 19 21 20 15 3 3 9 12 13 18 15 14 14 19 26
25 24 21 20 23 25 25 25 26 31 26 24 24 21 19 16 14 12 11 10 12 13 15 16 14 10 5 4 8 6 14 13 15 12 11 12 11 21
23 23 22 23 25 25 24 25 28 27 23 22 23 21 20 18 15 14 12 10 11 12 13 15 13 10 7 3 6 13 7 12 13 8 8 8 8 10
21 23 26 24 24 23 24 25 26 26 25 23 24 23 21 20 18 15 13 11 9 10 10 14 17 14 13 7 4 6 5 7 11 8 9 7 6 8
25 27 26 22 21 23 24 25 25 25 26 24 24 24 24 22 20 16 13 11 9 9 10 13 13 11 8 4 5 3 1 6 10 12 15 14 5 2
33 30 16 16 19 21 24 25 25 25 25 26 26 26 25 24 21 17 14 12 9 8 7 10 11 9 8 6 6 3 2 2 4 11 16 17 16 15

GFSNE_925_spd_033.txt.gz
Wind_Speed
8 8 9 10 11 11 12 12 12 9 9 12 12 9 11 13 18 22 22 23 27 25 24 24 24 23 25 26 27 28 29 29 30 29 28 27 26 27
9 10 11 11 11 10 11 12 12 15 11 16 15 14 12 16 18 19 22 24 23 24 23 22 23 25 26 27 29 30 31 30 29 29 28 27 26 27
14 13 12 12 11 11 12 12 13 14 17 20 14 14 13 17 18 19 20 21 21 21 24 25 26 26 26 27 27 27 28 29 30 29 27 27 28 28
16 15 15 11 14 13 13 14 13 14 17 20 19 16 15 16 17 18 19 19 21 22 23 24 24 22 21 23 25 26 27 28 28 29 28 28 28 28
18 17 16 14 15 14 14 13 14 14 14 16 20 16 16 15 17 18 18 20 19 21 23 21 18 20 22 24 25 26 26 26 26 27 27 28 28 28
22 21 19 18 18 14 15 15 14 13 14 16 18 17 16 15 15 17 19 19 21 21 19 16 20 21 22 20 20 20 21 22 22 22 24 27 27 29
25 24 23 24 22 18 15 16 14 14 15 16 17 16 16 15 16 16 18 20 21 18 17 17 22 21 18 18 19 19 20 21 22 23 25 26 27 28
20 21 24 25 24 23 21 21 17 15 16 16 15 15 17 16 14 14 17 18 18 18 21 24 20 21 20 20 22 25 23 19 18 16 17 22 24 26
21 20 20 23 25 21 20 21 20 20 20 16 16 17 17 14 13 15 16 19 22 24 23 23 21 20 19 22 24 24 21 16 17 18 18 19 21 24
24 23 21 20 23 22 19 17 17 17 18 18 17 17 16 13 13 15 18 21 22 21 18 20 19 20 22 22 20 16 14 15 18 20 21 21 22 24
22 23 22 21 23 25 21 19 18 19 18 21 20 19 17 15 14 16 18 18 20 21 18 12 16 24 22 20 14 16 22 20 21 23 24 23 24 26
21 23 24 26 26 25 25 23 20 21 16 15 15 15 16 15 16 15 16 17 18 15 6 14 18 16 10 12 22 20 19 18 19 23 24 25 23 24
19 20 22 28 30 28 27 28 29 22 17 16 15 14 14 14 14 14 14 15 17 18 19 16 17 19 13 22 25 25 19 21 21 21 20 25 27 25
26 23 25 28 27 28 29 32 30 28 17 16 16 16 15 15 15 14 14 15 16 20 20 18 18 18 20 22 23 23 25 21 18 17 27 32 30 24
34 33 30 27 25 26 28 30 29 27 21 20 20 18 16 14 13 12 12 14 15 16 15 13 15 16 17 21 24 25 24 18 15 20 29 32 29 20
27 31 35 32 28 22 21 23 28 26 26 24 20 17 15 13 13 12 12 12 13 13 11 11 12 14 18 19 19 20 18 14 19 22 28 31 21 10
33 31 26 20 20 21 21 22 21 24 25 25 19 18 16 15 13 11 11 10 12 12 13 12 11 14 17 17 15 13 16 16 16 21 25 23 24 23
28 26 25 23 23 22 19 18 20 21 23 24 21 20 19 16 14 12 10 10 11 11 12 12 13 14 10 5 7 9 14 15 16 17 17 15 19 29
20 22 23 22 23 22 19 18 20 20 21 21 21 20 19 16 14 13 11 10 10 10 10 10 10 9 6 5 5 6 12 15 16 13 13 15 11 18
25 22 23 22 22 21 17 17 17 15 16 17 18 19 18 17 15 14 12 10 9 9 9 8 7 7 8 6 6 8 9 11 14 11 11 11 12 14
25 26 27 30 21 21 19 18 17 16 15 15 16 18 18 18 17 15 12 11 9 8 8 8 8 10 10 6 5 7 5 6 9 10 12 6 6 8
24 24 25 28 35 23 20 19 16 15 15 16 15 17 18 19 18 16 13 11 10 9 8 8 8 6 5 5 6 3 2 2 7 13 14 12 4 3
24 25 25 26 25 26 18 12 13 13 14 15 15 17 18 19 19 16 14 12 9 8 7 6 5 4 4 4 4 2 1 1 2 5 11 14 13 12

GFSNE_925_spd_036.txt.gz
Wind_Speed
10 10 10 9 10 11 11 13 13 9 9 14 14 12 15 17 19 20 24 24 24 28 24 23 24 25 26 26 27 28 29 29 29 29 30 30 30 29
10 10 10 10 11 12 13 13 14 15 10 16 16 16 15 19 19 22 24 24 26 23 23 23 25 26 27 27 28 29 29 28 27 28 30 31 31 30
12 12 12 12 13 14 14 14 15 16 17 19 17 18 16 19 21 21 23 24 24 23 22 25 25 26 26 26 25 25 25 26 27 27 28 29 32 31
15 15 16 16 17 17 17 17 18 17 19 20 19 20 20 18 21 21 22 22 24 24 23 26 26 25 24 23 24 25 27 28 28 28 28 29 31 31
17 17 19 19 20 20 19 18 19 19 18 19 21 19 20 18 20 20 21 22 22 22 23 24 21 22 23 25 26 26 26 25 25 25 26 27 27 28
20 23 23 23 23 23 22 21 20 20 19 19 20 20 19 18 18 20 21 20 22 22 23 21 21 23 24 24 24 23 23 23 24 25 25 26 26 27
22 25 26 27 27 27 25 23 20 19 19 19 20 20 19 18 17 18 20 20 21 20 21 20 23 24 23 21 21 21 18 24 26 26 26 25 27 29
23 23 24 26 27 33 32 31 25 21 21 20 21 20 20 18 17 18 17 19 17 17 21 24 22 23 22 21 19 24 26 26 26 24 22 21 20 21
24 24 25 25 24 25 26 31 30 27 28 24 23 22 20 18 17 18 17 18 20 22 22 24 22 23 22 21 20 24 22 20 21 19 20 23 24 25
24 25 26 27 27 25 25 25 23 23 23 24 24 23 20 18 17 17 17 19 21 20 19 21 22 20 21 23 21 20 20 25 23 21 24 27 28 29
22 24 25 26 26 26 27 26 26 25 23 25 26 23 24 24 22 17 17 17 19 19 18 17 18 22 22 24 16 11 23 23 24 24 25 26 28 31
24 24 24 26 27 26 27 27 28 27 25 23 19 24 26 22 21 19 18 19 18 18 16 17 20 21 16 20 13 22 24 23 23 27 27 27 26 25
27 28 27 25 27 28 32 29 30 27 25 23 23 21 20 19 19 19 19 19 19 20 18 16 20 21 20 24 24 23 23 26 26 25 22 20 30 31
27 28 30 31 31 31 29 31 35 33 25 19 22 23 22 21 20 19 19 18 18 21 21 19 20 20 21 23 24 25 24 23 23 23 22 29 35 36
28 32 35 33 33 35 35 33 31 29 26 22 24 26 24 20 18 17 16 17 18 19 19 17 18 20 20 22 23 25 24 24 19 24 26 30 37 33
29 32 34 38 35 33 34 28 28 29 28 25 23 24 21 17 18 16 16 16 16 17 15 15 16 17 20 21 22 23 22 18 24 23 27 32 32 28
34 30 28 27 27 28 26 26 25 25 27 25 22 20 19 18 17 16 16 15 15 15 15 13 13 15 18 21 21 19 18 19 19 22 26 25 24 29
27 24 23 24 25 27 25 22 23 24 22 21 22 22 21 20 18 16 15 15 15 14 13 12 12 14 15 14 15 12 13 16 18 20 19 20 18 29
20 22 23 24 26 27 25 23 21 20 19 19 20 20 19 19 18 17 16 15 14 13 13 11 11 10 7 7 6 5 11 14 17 17 15 15 13 20
19 22 23 24 25 26 28 27 15 17 19 17 17 17 19 20 18 18 17 16 14 12 11 11 10 9 8 6 9 11 11 10 13 16 15 11 8 14
21 22 23 24 25 26 28 38 18 20 18 15 14 16 19 20 19 17 16 15 12 11 11 10 7 8 8 8 8 9 2 6 8 12 15 9 8 11
21 22 23 24 25 26 28 29 25 16 15 14 15 16 19 20 18 17 17 15 13 13 11 9 7 7 7 7 9 7 3 1 4 9 13 15 7 5
20 22 23 24 24 24 25 26 25 25 10 11 13 14 17 19 19 17 17 16 13 11 10 8 7 7 7 6 6 6 0 3 2 2 7 11 11 11